Location: Bassano
(45.7667°N, 11.7333°E)
Time: 18:52:17
(UTC+00:00)

Cosmos 773 Rocket - Pass Details

Date: 07 June 2020
Orbit: 745 x 777 km, 74.1° (Epoch: 01 July)

Event Time Altitude Azimuth Distance (km) Brightness Sun altitude
Exits shadow 02:11:02 11° 200° (SSW) 2,204 5.8 -10.3°
Maximum altitude 02:16:01 89° 285° (WNW) 779 4.0 -9.7°
Drops below altitude 10° 02:21:21 10° 21° (NNE) 2,333 7.8 -9.1°
Sets 02:23:45 0° 22° (NNE) 3,267 8.7 -8.8°
